Flag Weather past 2 weeks in Varanasi, Uttar Pradesh, India

Now
68 °F

Haze.


Feels Like: 68 °F
Forecast: 61 / 85 °F
Wind: 2 mph from North

Location: Varanasi / Babatpur

Current Time: Nov 28, 2014 at 8:18:27 PM

Latest Report: Nov 28, 2014 at 7:00 PM


Visibility: 1 mi

Pressure: 29.92 "Hg

Humidity: 73%

Dew point: 59 °F

Location of VaranasiLocation

Historic Weather in Varanasi — Graph

°F

Varanasi temperature yesterday

Maximum temperature yesterday: 79 °F (at 2:00 PM)
Minimum temperature yesterday: 55 °F (at 6:00 AM)
Average temperature yesterday: 68 °F

Past Weeks' High & Low Weather Summary

 TemperatureHumidityPressure
High84 °F (Nov 14, 2:00 PM)94% (Nov 17, 7:00 AM)30.09 "Hg (Nov 17, 7:00 AM)
Low55 °F (Nov 25, 6:00 AM)30% (Nov 16, 3:00 PM)29.71 "Hg (Nov 20, 12:00 PM)
Average69 °F63%29.95 "Hg
* Reported Nov 13 7:00 PM — Nov 28 7:00 PM, Varanasi, Weather by CustomWeather, © 2014

Note: Actual official high and low records may vary slightly from our data, if they occured in-between our weather recording intervals... More about our weather records

Advertising

Varanasi weather history for previous 24 hours

 ConditionsComfort  
Time TempWeatherWind HumidityBarometerVisibility
7:00 PM
Nov 28
68 °FHaze.2 mph73%29.92 "Hg1 mi
6:00 PM72 °FHaze.No wind61%29.89 "Hg1 mi
5:00 PM73 °FHaze.No wind57%29.89 "Hg1 mi
4:00 PM79 °FHaze.2 mph48%29.89 "Hg2 mi
2:00 PM81 °FHaze.5 mph37%29.89 "Hg2 mi
1:00 PM77 °FHaze.5 mph42%29.92 "Hg1 mi
12:00 PM75 °FHaze.1 mph44%29.95 "Hg1 mi
8:00 AM57 °FFog.No wind88%29.95 "Hg1 mi
7:00 AM57 °FFog.No wind88%29.95 "Hg1 mi
5:00 AM57 °FFog.No wind88%29.89 "Hg1 mi
4:00 AM57 °FFog.2 mph88%29.89 "Hg1 mi
12:00 AM61 °FFog.No wind83%29.89 "Hg1 mi
11:00 PM
Nov 27
63 °FFog.No wind77%29.92 "Hg1 mi
10:00 PM63 °FHaze.3 mph88%29.92 "Hg1 mi
9:00 PM64 °FHaze.No wind78%29.89 "Hg1 mi
8:00 PM68 °FHaze.No wind64%29.89 "Hg1 mi
Weather by CustomWeather, © 2014

See weather overviewHow to use our weather pages